Regional Weather Roundup
Issued by NWS Wakefield, VA

Home | Current Version | Previous Version | Text Only | Print | Product List | Glossary Off
Versions: 1 2 3 4 5 6 7 8 9 10 11 12 13 14 15 16 17 18 19 20 21 22 23 24 25 26 27 28 29 30

000
ASUS41 KAKQ 261815
RWRAKQ

REGIONAL WEATHER ROUNDUP
NATIONAL WEATHER SERVICE WAKEFIELD VA
200 PM EDT THU APR 26 2018

Note: "fair" indicates few or no clouds below 12,000 feet with no
significant weather and/or obstructions to visibility. * = Denotes
station may not report precipitation (e.g., rain,snow,etc.),
thunder or fog.

VAZ042-051-052>054-056-261900-
NORTHERN VIRGINIA

CITY           SKY/WX    TMP DP  RH WIND       PRES   REMARKS
WASH NATIONAL  FAIR      68  37  32 NW12      29.86F
DULLES         FAIR      66  38  35 NW10      29.86F
FORT BELVOIR   FAIR      67  35  30 NW3       29.86
QUANTICO       FAIR      69  38  32 NW7       29.86F
FREDERICKSBRG* FAIR      69  39  33 SE5       29.85F
STAFFORD*      FAIR      69  37  31 NE5       29.90S
WARRENTON      FAIR      68  30  23 CALM      29.85F
CULPEPER*      FAIR      69  34  27 N3        29.86F
MANASSAS*      FAIR      68  39  34 W8        29.86F
LEESBURG*      FAIR      64  43  45 NW16      29.87F
WINCHESTER     FAIR      63  36  36 NW8       29.88F
FRONT ROYAL*   FAIR      64  36  34 W8        29.85F
LURAY*         FAIR      66  32  28 CALM      29.86F
$$

VAZ048-049-060>072-079>083-261900-
CENTRAL AND SOUTH CENTRAL VIRGINIA

CITY           SKY/WX    TMP DP  RH WIND       PRES   REMARKS
RICHMOND       FAIR      70  40  33 VRB5      29.87F
CHESTERFIELD*  FAIR      70  45  40 W9        29.88S
PETERSBURG*    FAIR      68  41  37 CALM      29.89S
HANOVER        FAIR      70  39  32 SW8       29.88F
TAPPAHANNOCK*  FAIR      69  39  32 NW5       29.87F
QUINTON*       FAIR      68  40  36 NW8       29.87S
CHARLOTTSVILLE FAIR      71  31  22 VRB5      29.85F
GORDONSVILLE*  FAIR      69  35  28 SW9       29.85F
ORANGE*        FAIR      68  37  32 CALM      29.86F
LOUISA*        FAIR      69  38  31 N3        29.90F
BUMPASS*       NOT AVBL
FARMVILLE*     FAIR      72  45  38 S12G21    29.85F
CREWE*         MOCLDY    69  49  48 SE3       29.87F
FORT PICKETT*  FAIR      69  47  45 S8        29.88S
CHASE CITY*    FAIR      69  51  52 W6        29.87F
CLARKSVILLE*   CLOUDY    68  52  56 S5        29.88S
SOUTH HILL*    FAIR      68  51  56 CALM      29.93F
LAWRENCEVILLE* FAIR      70  48  45 SE5       29.88F
EMPORIA*       CLOUDY    68  54  60 E3        29.90S
$$

VAZ088>098-261900-
SOUTHEAST VIRGINIA

CITY           SKY/WX    TMP DP  RH WIND       PRES   REMARKS
NORFOLK        FAIR      66  43  43 CALM      29.89S
VIRGINIA BEACH PTSUNNY   67  36  31 NE5       29.89S
NORFOLK NAVAL  PTSUNNY   66  42  41 VRB5      29.91S
WEST POINT*    FAIR      68  38  33 NW7       29.88F
SALUDA*        FAIR      66  42  42 N6        29.88S
NEWPORT NEWS   PTSUNNY   67  42  40 S3        29.89R
LANGLEY AFB    NOT AVBL
FORT EUSTIS    NOT AVBL
WILLIAMSBURG*  FAIR      72  41  33 SW5       29.89S
HR EXEC AP*    FAIR      69  46  43 VRB7      29.90F
FRANKLIN*      FAIR      68  51  53 SW5       29.90S
US460-WAKEFLD  FAIR      70  49  47 SW10      29.89S
$$

VAZ020-022-025-037-045-261900-
WEST CENTRAL AND SOUTHWEST VIRGINIA

CITY           SKY/WX    TMP DP  RH WIND       PRES   REMARKS
STAUNTON*      FAIR      64  39  39 SE5       29.89F
WAYNESBORO*    FAIR      65  32  28 NW7       29.88F
HOT SPRINGS VA FAIR      57  28  33 SW7       29.91F
LYNCHBURG      FAIR      67  42  40 W9        29.87F
DANVILLE       FAIR      68  45  43 VRB5      29.87F
SOUTH BOSTON*  FAIR      69  47  43 CALM      29.88F
MARTINSVILLE   PTSUNNY   70  43  38 NW3       29.89F
ROANOKE        FAIR      69  38  32 VRB3      29.88F
BLACKSBURG     FAIR      63  40  42 NW9       29.92F
DUBLIN*        FAIR      63  37  38 N3        29.90F
MARION*        PTSUNNY   64  45  49 CALM      29.91F
HILLSVILLE*    FAIR      62  43  49 SW7G20    29.89F
RICHLANDS*     FAIR      58  -8   7 W5        29.91F
WISE*          CLOUDY    57  43  58 N3        29.92F
ABINGDON*      PTSUNNY   62  42  47 CALM      29.89F
$$

MDZ021>025-VAZ099-100-261900-
SOUTHERN MARYLAND AND THE DELMARVA PENINSULA

CITY           SKY/WX    TMP DP  RH WIND       PRES   REMARKS
PATUXENT RIVER FAIR      64  45  49 SE9       29.86S
BAY BRIDGE APT FAIR      64  43  45 NW7       29.85S
LEONARDTOWN    FAIR      66  34  30 W5        29.87F
DOVER          FAIR      66  45  46 SW15G21   29.82S
GEORGETOWN     FAIR      67  44  43 NW12G17   29.85R
EASTON         MOSUNNY   66  41  39 NW10      29.89F
CAMBRIDGE      SUNNY     64  41  42 N10       29.86S
SALISBURY      FAIR      67  45  45 SW13      29.85S
TANGIER        FAIR      61  43  51 CALM      29.88S
OCEAN CITY     FAIR      68  42  38 W10       29.85R
WALLOPS ISLAND FAIR      67  45  45 W12       29.87R
ACCOMACK*      FAIR      64  41  42 NW9       29.89S
$$

NCZ012>017-030>032-261900-
NORTH CENTRAL AND EASTERN NORTH CAROLINA

CITY           SKY/WX    TMP DP  RH WIND       PRES   REMARKS
ROANOKE RAPIDS FAIR      70  55  60 W3        29.88F
RALEIGH        PTSUNNY   72  55  55 SW8       29.88F
ELIZABETH CITY FAIR      71  57  61 SE12      29.89F
AHOSKIE*       CLOUDY    71  55  57 CALM      29.89S
EDENTON*       FAIR      72  59  64 NE9       29.89F
CURRITUCK*     NOT AVBL
KILL DEVIL HLS CLOUDY    59  48  66 E5        29.91S
MANTEO         CLOUDY    60  49  66 E7        29.92S
CAPE HATTERAS  FAIR      71  59  65 E12       29.91S
TARBORO*       NOT AVBL
GOLDSBORO      LGT RAIN  76  56  49 SE3       29.85F
WASHINGTON     CLOUDY    75  54  47 CALM      29.88S
GREENVILLE     FAIR      73  54  49 W7        29.90S
NEW BERN       CLOUDY    73  60  63 NE3       29.88F
WILMINGTON     FAIR      76  57  51 S13G21    29.87S
$$

VAZ048-261900-
ELSEWHERE

CITY           SKY/WX    TMP DP  RH WIND       PRES   REMARKS
HARRISBURG PA  FAIR      63  42  46 NW14G20   29.83F
BALTIMORE      FAIR      66  39  37 NW14      29.84F
ANNAPOLIS      FAIR      66  41  40 N10       29.84F
ANDREWS AFB    FAIR      65  36  34 W10       29.85
PHILADELPHIA   FAIR      64  42  44 W13       29.82R
HENDERSON NC   FAIR      67  51  56 CALM      29.88F
GREENSBORO     CLOUDY    67  47  48 CALM      29.87F
ROCKY MOUNT    CLOUDY    72  55  55 CALM      29.87F
$$

VAZ100-261900-
MARINE

STATION/POSITION TIME  TEMP    WIND        PRES    WAVE   SWELL
                       AIR SEA DIR/SP/G            HT/PER HT/PER
                 (UTC) (F)     (DEG/KT/KT) (MB)    (FT/S) (FT/S)
BRANDYWINE LGT   1736   56     250/  5/  6 1010.7R
CAPE MAY NJ      1748   57 54  270/  6/  7 1010.0R
LEWES DE         1748   61 54  310/ 13/ 15 1010.2R
15NM E FENWICK I 1750   51 51  180/  6/  8 1011.3R   6/10   5/10
OCEAN-CITY-INLET 1748   60 56  150/  4/  6 1011.3R
WACHAPREAGUE VA  1748   66 62  290/  3/  8 1011.8F
THOMAS POINT MD  1800   62 54  300/  6/  7 1011.6F
GOOSES REEF MD   1800   57     120/  6/  8 1011.6
COVE POINT MD    1748   58      60/  7/  8 1011.6F
SOLOMONS ISLAND  1748   57 54  100/  8/ 12 1010.8S
BISHOPS HEAD MD  1748   58 61  210/  6/  9 1012.0R
PINEY POINT MD   1748          320/ 11/ 11   N/A
POTOMAC MD       1800   59 55  310/  8/ 10 1012.8    1/ 2
CAMBRIDGE MD     1748   63 57              1012.1S
LEWISETTA VA     1748   62 56   10/  7/ 11 1011.4F
RAPPAHANNOCK LGT 1748           90/  2/  3 1012.8F
YORK RVR RNG VA  1748   57     130/  7/  7 1012.9R
YORKTOWN VA      1748   62 58   80/  4/  5 1011.8R
DOMINION TERM VA 1748   60     160/  4/  5 1012.8R
KIPTOPEKE VA     1748      57  250/  3/  4   N/A
CAPE HENRY VA    1748   59      20/  3/  3   N/A
WILLOUBY STN VA  1748   58      90/  3/  3 1012.7R
S CRANEY ISL VA  1748   62     130/  3/  3 1012.4R
CAPE HENRY BUOY  1800      55                N/A     4/11   2/11
1ST LANDING BUOY 1800   56 55  170/  4/  6 1013.6    2/ 9
64NM E OF VA BCH 1750   55 53  350/  2/  4 1013.4F   6/ 9   7/ 9
DUCK PIER NC     1748   59 54   70/  8/  9 1012.4F
44100 DUCK FRF   1745      57                N/A     6/10   3/11
44056 DUCK FRF   1800      56                N/A     5/11   3/11
OREGON INLET NC  1736   60 59   60/  8/ 11 1012.8F
HATTERAS NC      1748   66 68  100/  9/ 11 1012.6F
DIAMOND SHLS NC  1750   68 71   50/  6/  8 1012.9F   5/10   5/10
CAPE LOOKOUT NC  1800          130/  8/  9 1012.8R
$$




USA.gov is the U.S. government's official web portal to all federal, state and local government web resources and services.